Theta_e
334 335 337 338 340 339 338 339 339 339 340 339 339 338 337 336 336 335 335 335 332 332 330 331 330 330 330 332 333 332 331 330 330 327 325 324 323 325 327 327 327 327 325 324 324 319 317 316 318 325 327 328 329 328 329 329 329 330 330 331 333 333 333
337 337 337 338 337 340 338 339 340 339 340 341 340 340 339 338 337 337 336 336 335 334 331 333 333 331 331 332 331 331 331 330 331 330 329 326 327 324 326 327 326 325 325 326 326 326 319 319 318 320 321 325 328 327 328 329 329 330 329 330 331 331 334
337 337 337 337 337 339 337 338 338 338 338 340 341 340 340 339 339 338 337 337 337 335 334 334 335 334 333 332 332 332 333 332 332 331 328 328 329 329 327 327 324 324 324 324 324 323 324 323 318 319 322 320 320 324 327 327 328 328 329 330 331 331 332
336 336 336 337 337 338 337 338 338 338 339 339 340 342 341 340 341 340 339 338 339 339 338 337 336 334 334 334 334 333 333 331 331 331 331 331 331 329 328 327 325 324 322 321 322 323 323 321 319 320 322 321 321 322 325 325 328 326 328 329 329 330 332
338 336 336 336 335 336 337 337 338 337 339 339 341 340 341 341 342 341 341 340 339 340 339 339 339 337 336 336 335 334 334 334 334 333 333 331 331 330 330 330 328 328 327 325 325 325 322 321 321 320 319 321 322 321 325 328 326 326 328 326 328 329 331
339 337 336 337 337 337 337 337 338 336 337 337 338 339 340 341 341 342 341 341 341 343 342 340 340 339 339 338 337 336 335 335 334 334 332 332 332 330 330 331 330 329 328 327 328 326 326 325 322 318 320 321 318 319 323 324 323 326 324 326 329 330 329
341 341 339 338 339 339 339 338 338 338 337 339 339 339 340 341 341 342 342 343 343 343 342 342 342 341 342 339 338 337 336 336 337 336 334 334 333 333 333 330 330 329 330 330 330 328 327 325 322 321 320 321 321 319 322 321 322 321 322 324 326 330 330
340 339 340 341 341 340 340 339 340 340 339 340 339 341 341 342 342 343 342 342 342 343 342 342 342 342 343 343 341 341 340 340 339 338 337 336 334 332 333 332 331 331 331 330 330 329 329 328 325 324 321 318 319 320 318 320 320 320 320 323 324 326 329
342 341 340 340 341 342 341 341 340 341 342 341 343 342 342 343 342 342 343 343 343 343 343 342 342 342 342 341 340 340 339 338 338 338 340 339 339 339 337 335 333 331 332 331 331 330 329 329 328 327 324 321 317 315 319 318 319 319 321 320 323 325 324
340 340 339 341 341 342 343 343 341 341 342 343 342 343 343 343 344 345 344 345 346 346 346 345 344 343 343 342 341 339 338 338 339 336 338 339 339 339 339 338 337 336 336 334 333 333 333 332 330 329 327 324 322 317 315 316 318 318 321 322 320 322 325
338 338 340 340 342 342 343 343 343 343 343 342 343 343 343 343 344 344 345 345 346 345 344 344 344 343 343 341 341 339 338 339 337 337 336 336 336 336 335 336 336 334 336 336 336 337 336 335 332 331 329 328 326 321 320 316 317 321 322 325 325 322 325
341 341 340 342 343 341 340 341 342 341 343 344 343 344 344 341 344 345 345 343 343 342 342 342 341 340 341 339 339 338 338 338 336 335 336 335 335 334 333 333 333 332 333 334 334 335 336 334 332 331 329 329 329 327 323 320 317 322 326 324 328 328 327
339 339 342 342 341 340 341 341 341 341 343 343 344 345 344 343 343 342 340 339 339 338 337 337 338 337 338 338 337 336 337 336 334 333 334 334 333 333 332 331 331 331 332 331 332 333 332 333 332 329 329 328 328 329 327 321 318 318 326 326 327 330 330
341 341 341 341 341 341 342 341 342 343 342 344 344 344 342 341 340 340 338 335 335 335 335 335 336 336 335 335 336 335 334 333 332 332 332 333 333 333 332 331 330 331 331 331 331 330 330 330 331 331 330 330 328 329 326 324 319 319 324 328 327 327 329
342 341 341 342 342 341 341 341 344 344 344 343 344 341 340 339 339 336 334 333 334 333 332 333 334 334 332 333 334 333 332 331 332 331 332 331 331 331 332 330 330 330 331 329 328 328 329 331 331 329 329 329 328 328 327 322 321 320 320 325 325 327 326
341 341 342 341 341 340 341 343 344 344 343 342 342 341 339 338 335 334 332 333 331 331 331 330 332 330 330 329 329 330 330 330 329 329 329 329 328 330 330 329 329 329 330 330 329 331 331 331 331 329 328 328 327 327 328 327 323 320 320 321 325 325 325
341 341 341 341 341 342 343 344 343 343 342 341 339 339 337 334 333 333 331 329 329 328 328 328 327 327 326 326 325 325 326 327 327 327 326 325 327 327 328 327 327 327 327 326 326 325 326 326 326 327 326 326 326 326 328 328 327 325 324 320 323 323 325
341 341 341 341 342 344 344 344 343 341 341 339 337 336 334 333 332 330 328 326 326 325 325 324 323 323 324 324 323 323 323 323 324 324 325 325 325 326 326 326 323 324 323 323 322 320 320 320 320 321 320 319 320 321 322 324 325 326 323 321 321 324 324
340 341 341 342 344 344 345 343 341 340 339 337 336 335 333 330 328 326 325 324 324 323 322 322 321 320 320 320 321 322 322 321 321 321 321 322 322 324 324 323 322 321 318 315 315 315 316 316 316 318 317 316 316 317 317 319 319 319 319 318 318 317 320
340 341 342 344 345 343 342 341 339 337 337 335 333 331 330 328 327 325 323 323 321 321 321 320 319 319 318 317 317 317 318 318 318 319 318 317 318 319 318 317 318 317 317 317 316 316 317 317 317 317 318 318 318 318 317 316 316 316 316 316 316 317 317
341 342 344 344 343 342 341 339 338 337 335 333 331 329 327 325 324 323 322 321 320 319 318 318 318 317 316 317 317 316 316 316 316 316 317 316 317 317 316 316 317 318 319 319 317 317 317 316 318 317 318 319 319 319 318 317 317 315 314 314 313 313 314
343 344 343 342 341 340 339 339 337 335 334 332 330 328 325 323 321 320 319 319 317 316 314 313 317 321 317 315 316 316 316 315 315 315 316 316 317 317 317 317 317 320 321 318 314 312 311 311 316 316 317 318 319 318 318 317 317 315 315 314 314 315 314
341 342 341 341 339 339 338 336 335 333 331 329 327 325 323 322 320 319 318 316 316 315 313 314 312 306 309 319 316 315 316 316 315 316 316 316 317 317 317 318 319 318 317 317 315 311 309 309 309 313 315 317 317 317 317 317 316 316 315 313 313 313 313
340 339 339 339 339 337 335 335 333 331 329 327 325 323 322 320 319 318 316 315 314 313 312 311 302 297 299 302 316 315 315 315 316 315 316 316 315 316 316 316 317 316 315 315 314 312 310 307 307 307 307 309 311 315 316 315 315 316 314 313 313 313 312
338 337 338 336 336 334 335 333 331 330 327 325 324 324 322 320 318 318 316 314 313 312 312 305 296 297 298 298 306 319 315 315 314 314 314 314 315 315 315 316 316 316 314 313 312 313 313 311 308 306 304 306 306 305 303 312 314 314 315 314 313 313 313
336 336 336 335 334 334 332 331 330 328 325 324 323 322 321 320 318 317 316 313 312 311 312 301 296 297 297 297 298 311 313 314 313 314 314 314 314 315 315 315 315 314 312 312 311 310 311 312 310 309 312 308 308 305 298 294 297 314 317 314 314 313 315
335 335 335 333 333 332 331 330 329 327 325 323 322 321 321 319 318 317 316 314 313 312 313 303 295 296 297 296 297 302 313 314 313 313 314 315 315 315 314 314 313 313 312 312 311 311 310 311 312 310 310 311 313 318 306 303 305 302 311 316 315 314 315
334 334 333 332 332 330 330 330 327 325 323 322 321 320 319 318 317 317 316 315 313 312 313 293 293 294 295 296 295 304 315 314 313 314 315 316 316 315 315 314 313 312 311 310 311 307 311 311 311 309 309 309 310 311 315 315 315 314 314 314 315 315 315
334 333 331 331 329 329 331 329 325 323 323 321 322 320 319 319 317 316 316 314 313 311 312 288 291 293 294 295 293 315 314 314 312 312 313 315 315 315 314 313 313 311 311 309 305 296 301 311 312 308 308 309 309 310 311 316 308 308 316 315 315 315 314
333 332 330 329 328 330 330 326 324 323 321 321 319 318 318 316 318 315 315 314 314 312 313 299 291 294 294 293 306 314 314 312 313 312 312 314 313 313 313 313 311 310 310 310 301 293 295 304 311 308 308 308 308 308 308 310 305 299 298 299 299 297 295
331 330 329 328 328 329 328 326 324 323 320 319 317 316 316 317 316 316 315 314 314 314 313 304 290 293 294 293 305 316 313 312 312 313 312 313 314 311 310 310 312 311 310 308 295 293 294 308 310 308 307 307 306 306 307 308 311 311 302 302 300 297 297
331 329 328 328 329 327 326 325 323 322 320 319 317 316 316 316 315 315 316 316 314 314 313 308 291 292 294 294 307 315 311 311 310 310 312 311 313 312 310 308 306 306 308 303 292 294 294 305 309 309 306 306 304 304 305 307 309 308 308 309 311 311 311
330 328 327 328 328 327 326 323 321 320 319 317 317 315 318 315 314 315 316 316 315 316 314 313 306 288 294 295 295 314 312 308 308 309 310 310 310 312 311 310 306 293 293 293 293 292 294 294 308 309 307 304 304 302 305 306 309 308 308 309 309 310 309
327 327 327 326 327 326 324 322 321 320 318 317 317 318 315 315 315 315 315 315 316 316 316 313 311 288 294 294 293 300 312 309 308 309 311 309 309 309 309 310 309 298 292 293 293 293 293 294 297 309 307 304 305 306 302 308 309 307 308 308 308 307 307
326 326 326 328 324 324 323 322 319 316 315 314 313 316 316 314 314 314 315 315 316 316 315 314 312 297 292 294 293 293 309 310 309 313 311 308 308 309 309 309 308 300 292 293 293 293 293 293 293 305 305 294 293 293 306 308 308 307 306 306 305 304 305
323 323 323 322 322 321 319 317 317 317 316 313 313 316 315 314 313 313 315 315 317 317 315 312 304 308 294 293 293 294 292 304 298 317 310 308 309 309 310 310 308 301 292 293 293 293 294 293 299 303 292 292 294 292 300 307 306 306 305 304 304 303 302
321 321 321 319 318 317 316 317 319 319 319 315 316 318 319 315 314 314 314 313 315 315 315 312 305 302 301 291 293 293 294 293 294 310 312 309 309 308 308 309 306 293 293 293 292 293 294 297 301 294 293 293 293 297 305 304 303 304 303 302 301 301 301
Wind_Speed
4 4 3 3 3 2 3 3 2 3 3 3 3 4 4 3 3 3 4 4 5 6 5 5 6 6 6 5 5 5 5 5 6 6 6 6 5 4 5 4 3 3 4 4 4 5 3 4 3 3 3 5 3 3 3 4 4 3 2 3 2 2 2
3 2 2 3 3 3 3 3 2 2 2 3 3 3 3 3 2 2 2 3 4 5 5 5 4 4 4 4 5 4 4 5 4 5 5 5 6 5 4 4 4 3 2 3 3 4 5 5 3 5 5 4 2 3 4 3 4 4 4 2 3 3 3
2 3 2 3 3 2 3 3 3 2 2 2 2 2 3 3 3 2 2 2 2 2 2 2 2 1 2 2 3 3 3 3 2 3 4 4 4 4 4 4 4 4 3 3 4 4 3 3 5 6 5 7 5 4 4 4 3 3 4 3 3 4 4
2 2 2 3 3 3 3 3 3 3 2 3 2 2 2 2 2 1 2 2 1 0 0 1 0 1 1 1 1 1 1 2 2 2 2 2 3 4 4 4 5 6 5 6 5 5 5 6 6 5 5 7 6 5 5 5 5 2 2 2 4 4 3
2 1 2 3 3 4 3 3 3 3 3 3 3 3 3 2 2 2 1 1 2 2 2 1 1 1 1 1 1 1 1 1 1 2 2 3 3 3 3 2 3 3 3 4 4 5 5 6 6 6 6 6 5 5 3 2 3 3 1 2 3 3 3
1 2 3 3 2 3 2 3 3 3 3 3 3 3 3 2 2 2 2 2 2 1 2 2 2 1 2 2 2 2 2 2 2 2 3 3 3 3 4 3 2 2 4 2 1 4 4 4 5 6 7 7 6 6 5 3 3 1 2 3 1 2 4
3 2 2 2 3 2 2 2 2 2 2 2 2 2 2 2 2 2 2 3 3 3 3 3 3 3 3 3 3 3 3 3 3 3 4 4 4 4 4 4 4 4 3 3 3 3 4 5 6 6 7 6 6 6 5 5 3 2 3 3 1 1 2
3 3 3 2 2 2 1 1 1 1 1 1 2 1 2 2 2 3 3 3 4 4 5 5 4 4 4 4 5 5 4 4 4 4 5 5 5 5 5 5 5 4 4 4 3 4 4 5 4 5 6 7 7 7 5 5 5 6 3 3 3 1 3
3 3 3 2 2 1 1 0 2 1 0 0 0 1 1 2 2 3 3 3 3 4 4 5 5 6 6 6 6 6 7 5 5 6 6 6 5 6 6 6 6 5 5 4 4 5 5 5 5 4 5 5 7 8 8 7 6 5 6 4 4 4 2
5 4 4 3 2 1 1 1 0 1 1 1 1 1 2 2 3 3 3 3 3 3 4 4 5 5 5 5 6 6 7 7 7 7 6 6 6 6 6 6 6 6 6 5 5 5 5 6 5 5 5 6 6 7 7 8 8 8 6 7 6 7 6
6 5 4 3 3 2 2 2 1 1 1 1 2 2 2 2 2 2 3 3 3 4 4 4 5 5 5 4 5 5 5 6 6 5 5 6 6 5 5 5 5 5 5 5 4 5 4 4 4 5 6 6 6 8 8 8 9 8 8 6 6 6 5
5 4 3 2 2 2 2 1 1 1 2 2 2 2 2 3 2 3 3 4 4 5 5 5 5 5 5 5 5 5 6 6 5 6 5 5 5 5 6 6 5 5 5 4 4 4 3 3 4 5 5 4 5 6 7 8 9 9 8 9 8 8 9
6 5 3 3 3 3 2 1 1 1 1 2 2 2 2 2 2 3 3 4 5 5 6 6 6 6 5 5 6 6 6 6 6 6 6 6 5 6 6 6 6 6 5 5 4 3 3 3 4 5 5 4 3 4 5 7 8 10 9 10 11 9 9
5 4 4 3 3 3 2 2 2 1 1 1 1 0 1 3 3 3 4 5 5 5 6 6 6 6 6 6 6 6 7 7 8 7 7 8 7 7 7 7 7 7 6 6 6 5 4 5 5 5 5 4 4 4 5 6 8 9 9 8 9 9 10
5 4 4 3 4 3 2 2 1 1 0 1 1 2 3 3 4 4 5 6 6 6 6 7 6 6 7 7 7 6 7 8 8 8 8 8 8 7 7 8 9 9 8 8 8 8 7 6 5 5 4 4 4 4 3 5 7 8 9 8 9 8 8
5 5 5 4 4 3 2 1 1 1 2 3 3 3 4 4 4 5 5 6 6 6 7 7 6 7 7 7 8 7 8 8 8 8 8 8 9 8 9 8 9 9 8 8 8 8 8 8 7 7 7 6 6 5 3 3 6 7 9 9 8 9 7
5 5 5 4 4 4 2 2 2 3 4 4 5 4 4 5 5 5 6 6 6 6 7 7 7 7 8 8 8 8 8 8 8 8 8 8 8 8 9 9 9 10 10 10 10 9 9 9 8 7 7 6 6 7 6 5 5 7 8 10 10 9 8
6 6 5 4 4 3 3 3 3 5 5 5 5 5 5 5 5 5 5 6 6 7 7 7 7 7 7 7 7 7 8 8 8 8 8 8 7 8 9 9 9 9 10 9 9 9 9 10 8 8 8 8 7 7 6 6 6 6 8 9 9 8 9
6 6 6 5 4 4 4 5 6 5 6 6 6 5 5 4 5 6 6 6 6 7 7 7 7 7 7 7 7 7 7 7 7 8 8 8 8 8 8 9 9 10 10 10 9 9 9 10 8 8 8 8 8 7 8 8 7 7 7 7 7 8 8
6 6 5 5 4 5 6 6 6 7 6 7 7 6 6 6 6 6 7 6 7 7 7 7 7 7 7 7 7 7 7 7 7 7 7 8 8 9 9 9 9 9 10 10 10 10 9 9 8 8 8 8 8 8 8 7 7 8 7 7 7 7 7
6 5 4 5 6 6 6 7 7 7 7 7 7 7 7 7 7 7 7 7 7 7 7 7 7 6 6 6 7 7 7 6 7 6 7 8 7 7 8 9 9 10 10 9 9 8 9 7 8 8 8 8 8 8 8 7 7 7 7 8 7 7 7
5 5 6 6 7 7 8 8 8 8 7 7 6 7 8 8 8 8 8 8 8 8 8 7 6 6 5 7 6 7 7 7 6 6 7 7 7 7 8 9 10 9 9 9 10 7 7 7 6 7 8 8 8 9 8 8 8 7 7 8 8 8 8
6 6 7 8 8 9 8 9 8 8 8 8 8 8 8 8 8 8 8 9 8 8 7 6 6 10 9 6 6 5 5 6 6 6 6 6 7 7 8 8 9 11 10 9 7 5 4 3 5 6 7 8 9 9 9 9 8 8 8 8 8 8 8
7 8 9 9 9 10 10 9 9 9 9 9 9 8 8 8 8 8 9 9 9 8 7 5 7 8 9 10 6 6 5 6 6 6 6 6 6 7 7 8 8 11 12 11 8 5 6 6 5 0 2 5 7 6 8 9 9 9 9 8 8 8 9
9 9 10 10 10 10 10 10 10 9 9 10 8 8 8 8 8 8 8 9 9 9 7 6 6 8 8 9 8 5 6 5 6 6 6 6 6 6 7 7 7 7 10 12 12 11 11 7 2 6 8 7 6 2 5 5 7 9 10 9 10 9 9
9 10 10 10 10 10 11 10 10 10 10 9 9 9 9 9 8 8 9 10 10 9 7 5 6 7 7 8 9 6 7 6 6 6 6 6 7 6 6 6 6 7 8 13 12 12 12 11 10 10 4 12 8 7 5 3 5 5 8 10 10 10 10
10 10 11 11 11 11 11 10 10 10 10 9 9 9 9 9 9 9 9 9 9 9 7 6 6 6 7 8 8 7 7 6 6 6 6 6 5 6 6 6 6 7 8 10 10 11 12 11 10 10 10 8 5 8 9 6 1 6 7 8 9 9 10
11 11 11 11 11 11 11 11 11 10 9 9 10 9 9 9 8 8 9 9 9 8 5 5 5 7 6 7 8 8 6 5 5 5 4 5 5 5 5 5 6 7 8 9 8 10 10 12 10 9 9 9 8 9 7 8 8 8 8 7 7 7 7
11 12 12 12 12 12 11 11 11 10 10 9 8 8 8 8 8 8 8 9 9 9 5 4 5 6 7 8 9 3 4 4 5 4 4 4 5 5 5 6 6 7 8 8 11 14 12 11 9 10 10 9 9 8 7 4 1 2 3 6 6 6 6
12 12 13 13 13 12 12 12 11 9 10 9 8 8 8 7 5 7 8 8 8 8 7 4 5 6 8 9 9 2 2 3 3 4 4 4 6 7 7 7 6 6 7 8 10 13 14 15 8 10 9 9 9 8 8 6 5 8 8 8 8 8 7
13 13 13 13 12 11 11 10 10 9 9 9 9 9 8 7 7 7 7 7 7 7 6 5 4 6 8 9 9 5 1 3 3 2 4 3 5 6 9 13 10 7 6 7 10 11 14 13 8 9 9 9 9 9 9 9 8 6 7 7 10 12 10
12 13 13 12 11 12 11 10 10 9 9 9 9 8 7 7 7 7 6 6 8 7 6 5 3 5 7 8 8 4 3 3 2 2 2 4 2 4 6 8 11 9 7 6 8 10 11 12 8 8 9 9 9 9 9 11 9 10 11 10 8 8 4
9 10 10 10 9 10 9 10 10 9 8 8 8 7 7 8 8 6 6 7 6 5 6 5 4 5 7 9 9 7 3 4 3 1 1 1 3 2 3 7 8 6 5 6 7 8 10 10 9 7 8 7 8 9 10 10 9 9 10 9 9 8 8
11 10 11 12 11 10 9 10 10 9 9 8 6 6 9 8 7 7 6 6 5 5 4 5 4 4 6 7 8 8 4 4 4 2 1 1 2 2 2 4 5 6 3 4 5 6 7 8 9 7 5 7 7 9 12 9 9 9 9 8 7 7 7
8 8 9 10 12 11 11 11 11 11 10 10 10 10 9 7 7 7 6 6 5 5 5 4 4 5 5 6 7 9 6 4 5 4 1 2 2 3 3 3 4 5 2 2 3 4 6 7 10 5 5 6 10 12 9 10 8 7 8 7 6 7 7
10 9 9 10 11 10 11 11 10 9 9 10 11 9 9 8 7 7 6 5 5 5 5 4 6 3 4 5 5 6 7 6 8 7 3 2 2 2 3 3 6 5 2 4 5 5 7 9 7 3 7 9 10 11 12 6 7 7 7 7 7 8 9
11 10 11 9 9 9 10 9 8 7 7 8 8 8 8 8 7 7 6 5 5 5 4 5 4 4 4 4 4 4 5 6 7 7 5 3 3 4 4 4 5 4 4 6 8 9 9 5 2 5 9 11 12 12 6 7 7 8 9 8 9 9 9
Wind_Direction
61 66 62 69 56 41 46 51 56 67 49 47 56 54 66 82 60 55 56 56 46 59 45 53 45 42 37 53 37 32 38 32 32 32 42 34 30 52 35 30 55 59 39 40 23 358 344 326 59 47 40 18 13 18 339 310 294 297 282 305 304 262 229
78 73 81 70 66 48 46 67 54 59 64 43 40 53 51 59 65 61 44 49 51 47 50 60 38 33 33 31 32 36 32 36 27 25 32 37 33 32 27 43 38 34 71 70 38 19 14 350 36 16 9 12 43 47 10 339 305 280 267 276 288 291 256
76 71 49 73 76 61 68 62 67 68 60 75 63 50 45 59 48 49 53 61 58 62 12 29 21 35 41 25 31 22 14 25 39 34 27 23 34 28 26 19 31 25 36 44 29 14 33 13 350 10 9 7 1 29 18 4 329 257 258 244 250 245 257
61 66 77 95 90 82 68 76 73 76 67 66 77 79 69 56 58 43 37 60 82 93 313 297 3 35 12 357 348 324 325 353 25 354 22 32 12 36 26 25 30 37 28 25 15 17 8 13 1 11 16 12 351 359 31 11 330 339 285 263 249 260 270
68 103 98 87 97 92 91 90 95 93 87 96 91 91 87 71 64 63 52 32 40 34 34 26 335 347 334 313 274 275 291 285 264 292 1 2 15 358 28 26 13 12 17 11 15 5 10 5 349 350 360 356 350 1 34 5 0 327 332 252 279 266 250
130 135 122 115 90 98 92 97 92 92 98 96 84 85 83 58 44 34 24 2 354 358 346 343 356 290 293 287 288 280 271 283 303 289 294 295 302 309 342 349 306 308 357 10 308 342 356 337 331 342 357 345 346 339 349 331 32 350 31 312 266 279 259
164 150 132 118 112 101 115 93 89 76 80 87 89 67 41 20 13 6 340 328 325 320 318 314 313 315 283 300 312 305 315 314 302 279 293 289 288 290 294 296 311 322 321 312 317 300 324 327 343 344 338 332 332 331 330 333 4 325 51 327 347 334 292
169 160 145 132 126 131 106 88 79 97 91 54 49 40 348 332 322 319 323 313 313 313 312 309 309 303 294 286 300 300 299 304 297 284 295 292 292 295 285 289 300 291 294 294 303 297 300 306 307 327 328 326 328 321 332 328 329 331 26 325 338 69 331
179 163 149 159 156 210 149 195 126 160 85 54 334 299 304 291 295 288 280 285 296 302 307 309 307 308 314 309 308 312 309 307 299 290 286 291 288 291 294 291 281 289 287 289 283 287 287 296 292 288 294 298 311 315 323 321 313 313 322 317 311 140 166
186 184 182 171 189 169 234 250 234 314 296 258 267 252 267 268 276 285 297 309 310 316 322 323 319 321 321 319 322 326 323 327 326 323 320 307 314 313 309 310 304 307 313 309 301 289 297 291 285 289 282 289 301 294 298 305 311 323 310 325 325 322 330
190 188 189 195 180 195 201 213 227 224 254 295 277 285 290 293 305 315 332 351 3 3 3 3 357 352 347 344 347 340 348 340 332 333 329 327 329 324 321 319 318 312 329 327 327 319 305 304 307 298 288 289 287 286 292 295 296 298 301 302 283 293 289
197 197 191 193 209 230 213 214 257 309 301 285 305 320 317 341 360 4 12 22 31 31 30 26 14 16 7 8 5 2 11 358 354 352 0 357 349 338 337 331 332 335 329 328 327 322 316 317 309 291 288 282 289 287 292 292 290 289 311 308 301 287 294
192 196 189 206 223 223 234 259 274 281 314 320 326 340 342 4 35 35 50 48 52 38 38 30 25 22 24 22 18 15 13 8 6 7 9 13 7 4 354 347 354 355 352 339 341 336 326 324 310 309 315 310 295 289 289 293 283 285 294 297 300 302 301
196 199 211 212 236 235 245 259 270 310 319 334 347 16 60 67 66 70 70 55 48 54 44 41 30 27 33 32 32 23 18 20 18 24 13 21 20 14 6 1 10 10 359 353 346 343 353 354 343 333 343 332 330 317 321 301 294 295 301 304 296 299 308
198 206 210 217 233 238 242 252 281 267 279 96 97 90 95 90 84 72 65 67 68 59 55 49 40 39 36 38 43 30 26 27 26 31 26 22 24 22 21 18 18 15 9 7 9 10 11 12 1 360 2 345 346 340 347 317 309 310 312 309 305 307 303
201 207 216 222 229 238 233 227 203 199 145 123 114 101 96 95 86 81 79 75 69 66 59 55 50 46 43 40 41 44 36 35 35 33 34 30 28 27 28 27 24 24 22 27 25 24 16 8 1 359 355 353 343 337 336 307 311 309 311 309 311 312 317
206 210 216 219 226 228 218 190 174 158 136 131 121 112 111 105 98 87 83 80 75 70 66 65 59 49 45 41 41 41 42 43 39 38 37 34 30 31 30 31 32 27 22 25 21 21 18 9 6 3 359 359 343 341 335 321 303 307 311 314 321 320 326
209 211 218 222 209 203 192 168 158 149 141 135 125 121 106 97 97 93 87 82 77 71 68 63 62 62 60 51 48 48 47 45 42 42 41 40 35 32 37 37 35 30 25 21 20 14 11 4 2 2 1 353 350 346 334 326 320 310 310 313 316 319 320
213 215 216 211 199 191 169 165 154 150 144 132 125 118 114 104 98 102 94 83 77 75 71 65 60 58 58 58 57 55 53 49 43 42 42 39 36 33 38 39 36 32 28 23 16 12 5 0 358 355 356 350 342 339 331 325 325 323 313 311 312 315 324
213 215 208 197 183 178 170 157 157 144 139 135 131 126 118 112 98 91 88 82 77 71 67 64 63 57 57 56 56 55 51 50 53 47 40 42 40 37 37 37 35 32 30 27 17 11 3 358 356 350 358 345 340 335 329 327 328 319 318 318 316 318 321
207 204 189 180 178 170 161 158 146 139 139 136 133 127 120 109 103 91 84 80 74 69 65 60 56 59 59 61 59 55 54 48 49 50 47 44 41 43 46 43 39 39 35 32 21 15 8 357 349 353 359 347 342 337 334 335 329 331 332 330 325 332 333
189 179 179 174 168 166 163 151 148 142 138 131 125 123 122 119 114 106 98 91 84 73 65 55 40 14 48 62 58 59 50 49 46 47 47 46 44 44 51 55 46 40 34 46 56 46 32 9 350 354 356 347 343 340 340 341 336 342 340 334 336 343 332
187 180 179 174 171 165 158 154 149 145 140 133 131 128 124 120 116 114 108 97 88 80 74 69 22 18 14 18 56 55 59 51 49 49 46 47 51 51 53 61 60 42 33 41 82 112 107 45 11 5 354 356 354 347 347 342 346 348 338 340 344 338 338
184 183 180 176 167 166 160 154 151 145 137 134 131 131 131 125 118 113 108 101 94 89 84 64 20 29 27 4 16 60 52 55 51 50 53 53 50 54 52 50 52 45 34 23 37 76 133 131 146 185 302 353 0 2 356 350 351 347 348 341 340 340 344
189 186 179 176 171 167 158 156 151 142 138 137 138 136 131 124 121 116 110 105 100 97 92 43 17 36 25 12 354 24 60 59 52 53 53 49 53 50 51 52 44 42 37 21 13 11 10 19 63 172 184 194 173 76 357 2 353 353 347 339 338 345 345
194 182 182 175 170 165 163 159 149 146 145 141 139 140 131 129 128 123 118 111 108 104 99 44 23 29 24 3 350 347 71 59 58 58 52 53 51 46 40 48 51 37 39 24 18 9 0 356 1 352 190 177 176 148 158 239 260 321 340 335 341 341 354
193 183 178 172 167 169 165 158 150 146 142 144 142 136 136 133 132 128 120 118 114 110 103 51 12 22 15 354 337 327 81 69 65 64 58 54 57 53 46 39 38 43 36 30 20 2 353 351 353 356 358 356 359 147 163 168 12 245 271 338 347 344 349
191 182 176 170 171 169 164 150 149 146 148 147 143 143 141 139 130 127 125 121 119 115 93 32 9 5 360 330 324 302 75 65 71 75 70 68 66 61 54 49 44 41 38 32 24 353 342 342 350 357 357 355 356 349 19 20 9 5 3 353 351 346 346
188 178 174 171 171 169 158 154 150 148 146 144 142 139 132 128 129 124 128 127 126 123 104 56 7 354 341 322 310 278 85 82 66 71 73 66 62 56 48 38 40 42 36 37 12 351 342 326 339 357 356 352 351 347 7 72 102 332 341 345 345 345 344
184 178 174 172 172 164 156 152 147 146 143 140 136 131 124 110 109 151 143 139 133 126 118 70 15 357 343 332 305 67 86 70 71 73 73 90 81 60 45 31 37 34 37 37 8 349 342 328 339 354 352 347 346 344 351 359 191 197 230 244 249 256 251
181 178 173 175 168 157 151 144 141 141 138 133 127 121 113 129 179 155 150 146 139 128 117 76 16 3 348 341 318 309 32 82 69 100 104 95 96 86 63 42 26 43 40 36 0 344 346 331 350 355 348 341 342 343 347 344 335 338 328 282 220 225 227
181 175 173 168 157 148 144 138 133 133 128 123 120 120 134 176 169 158 150 131 123 128 116 104 64 5 353 349 330 317 3 23 49 31 133 119 129 104 108 78 57 38 39 17 354 351 346 344 344 359 344 339 340 339 345 333 331 336 333 330 332 326 294
173 167 161 142 139 131 116 112 118 117 120 123 133 141 181 182 166 152 140 140 148 135 128 116 72 8 6 352 349 330 4 359 356 76 25 72 130 108 108 121 100 68 23 16 359 349 338 340 338 346 349 343 341 335 335 323 323 329 318 320 323 319 319
154 150 140 133 122 111 119 118 119 122 129 136 147 170 190 172 159 150 154 153 145 139 128 125 85 26 11 3 355 343 330 3 334 358 133 149 63 74 71 80 90 81 22 5 340 333 336 324 312 324 6 347 334 321 306 300 310 311 309 311 310 317 326
121 115 119 116 123 127 130 133 137 146 156 153 173 194 170 164 163 158 156 161 149 138 105 63 111 85 26 10 9 358 344 28 345 324 16 46 37 55 34 60 72 84 15 286 309 331 319 304 289 317 1 302 290 291 294 295 300 316 317 316 324 326 333
119 125 128 124 119 130 139 142 152 159 158 165 184 177 163 166 165 164 164 172 167 157 136 117 31 82 76 19 20 11 1 346 339 304 21 30 27 30 45 68 102 98 327 310 289 283 287 302 275 18 289 294 286 291 283 303 324 312 320 317 321 324 328
118 115 111 118 128 131 133 141 156 169 173 177 177 163 184 172 172 171 177 179 184 181 167 128 89 59 99 61 30 18 16 2 351 358 350 18 7 17 15 21 49 41 292 279 265 248 241 272 2 275 281 284 288 279 302 333 330 332 319 320 326 330 325